Weather in Vershina

Russia / Irkutsk Oblast     54°37′40″N   99°49′08″E
temp.,
°C
wind,
m/s
gust,
m/s
humid.,
%
clouds,
%
prec.,
mm/h
press.,
hPa
HPBL,
m
9 may, sun
sun923:00+7w2687100 0.6 1013252
02:00+4sw259445 0.8 1012112
05:00+5ssw2695100 1.8 1011296
08:00+5wnw5981100 2.3 10121151
11:00+7wnw5860100 0.1 10111723
14:00+9nw5848100 0.1 10112244
17:00+7nw576097 0.2 10121484
20:00+5nnw377353 0.4 1014757
10 may, mon
mon1023:00+2nw2892100 0.1 1016407
02:00+2wnw4109693 0.3 1017625
05:00+1wnw3997100 0.6 1017374
08:00+2wnw3997100 1.3 1018451
11:00+2nw41097100 0.9 1019598
14:00+3nw4997100 1.8 1020540
17:00+4wnw3896100 0.0 1021563
20:00+5wnw3788100 0.1 1021602
11 may, tue
tue1123:00+3w2795100 0.3 1022275
02:00+1w22975 0.4 102242
05:000w229819 0.0 102243
08:00+5w13875 0.0 1021225
11:00+10wnw11659 0.0 1019905
14:00+14nnw114565 0.4 10161858
17:00+12n2145100 0.0 10151514
20:00+11ne22615 0.0 101550
12 may, wed
wed1223:00+6ene11755 0.0 101610
02:00+5w1181100 0.0 101510
05:00+3nne2284100 0.0 101523
08:00+5ne3484100 0.0 1016472
11:00+4ne3595100 0.5 1017679
14:00+6nne457699 0.9 1017948
17:00+6ne346992 0.2 1018957
20:00+6w11625 0.2 101828
13 may, thu
thu1323:00+2wsw22876 0.0 102120
02:000w118538 0.0 102110
05:000w11855 0.0 102110
08:00+5sw11625 0.0 1021240
11:00+11s114173 0.0 10201793
14:00+14se11321 0.0 10171966
17:00+14ese12300 0.0 10151968
20:00+11se24460 0.0 1014109